Time,TemperatureF,DewpointF,PressureIn,WindDirection,WindDirectionDegrees,WindSpeedMPH,WindSpeedGustMPH,Humidity,HourlyPrecipIn,Conditions,Clouds,dailyrainin,SolarRadiationWatts/m^2,SoftwareType,DateUTC
2013-03-26 00:03:00,27.0,24.0,-100.00,ENE,76,7.0,16.0,87,0.00,,,0.35,0.000000,,2013-03-26 04:03:00,
2013-03-26 00:11:00,27.0,23.0,-100.00,ENE,68,6.0,18.0,83,0.00,,,0.35,0.000000,,2013-03-26 04:11:00,
2013-03-26 00:33:00,27.0,23.0,-100.00,ENE,68,6.0,18.0,83,0.00,,,0.35,0.000000,,2013-03-26 04:33:00,
2013-03-26 00:43:00,27.0,23.0,-100.00,ENE,68,6.0,18.0,83,0.00,,,0.35,0.000000,,2013-03-26 04:43:00,
2013-03-26 00:53:00,27.0,23.0,-100.00,ENE,68,6.0,18.0,83,0.00,,,0.35,0.000000,,2013-03-26 04:53:00,
2013-03-26 01:02:00,27.0,23.0,-100.00,ENE,68,6.0,18.0,83,0.00,,,0.35,0.000000,,2013-03-26 05:02:00,
2013-03-26 01:11:00,26.0,22.0,-100.00,East,80,5.0,13.0,85,0.00,,,0.24,0.000000,,2013-03-26 05:11:00,
2013-03-26 01:42:00,26.0,22.0,-100.00,East,80,5.0,13.0,85,0.00,,,0.24,0.000000,,2013-03-26 05:42:00,
2013-03-26 01:52:00,26.0,22.0,-100.00,East,80,5.0,13.0,85,0.00,,,0.24,0.000000,,2013-03-26 05:52:00,
2013-03-26 02:02:00,26.0,22.0,-100.00,East,80,5.0,13.0,85,0.00,,,0.24,0.000000,,2013-03-26 06:02:00,
2013-03-26 02:11:00,26.0,22.0,-100.00,East,83,5.0,11.0,85,0.00,,,0.21,0.000000,,2013-03-26 06:11:00,
2013-03-26 02:32:00,26.0,22.0,-100.00,East,83,5.0,11.0,85,0.00,,,0.21,0.000000,,2013-03-26 06:32:00,
2013-03-26 02:43:00,26.0,22.0,-100.00,East,83,5.0,11.0,85,0.00,,,0.21,0.000000,,2013-03-26 06:43:00,
2013-03-26 02:53:00,26.0,22.0,-100.00,East,83,5.0,11.0,85,0.00,,,0.21,0.000000,,2013-03-26 06:53:00,
2013-03-26 03:02:00,26.0,22.0,-100.00,East,83,5.0,11.0,85,0.00,,,0.21,0.000000,,2013-03-26 07:02:00,
2013-03-26 03:11:00,26.0,22.0,-100.00,ENE,71,5.0,11.0,86,0.00,,,0.21,0.000000,,2013-03-26 07:11:00,
2013-03-26 03:43:00,26.0,22.0,-100.00,ENE,71,5.0,11.0,86,0.00,,,0.21,0.000000,,2013-03-26 07:43:00,
2013-03-26 03:53:00,26.0,22.0,-100.00,ENE,71,5.0,11.0,86,0.00,,,0.21,0.000000,,2013-03-26 07:53:00,
2013-03-26 04:02:00,26.0,22.0,-100.00,ENE,71,5.0,11.0,86,0.00,,,0.21,0.000000,,2013-03-26 08:02:00,
2013-03-26 04:11:00,26.0,23.0,-100.00,ENE,74,4.0,8.0,89,0.00,,,0.21,0.000000,,2013-03-26 08:11:00,
2013-03-26 04:32:00,26.0,23.0,-100.00,ENE,74,4.0,8.0,89,0.00,,,0.21,0.000000,,2013-03-26 08:32:00,
2013-03-26 04:42:00,26.0,23.0,-100.00,ENE,74,4.0,8.0,89,0.00,,,0.21,0.000000,,2013-03-26 08:42:00,
2013-03-26 04:52:00,26.0,23.0,-100.00,ENE,74,4.0,8.0,89,0.00,,,0.21,0.000000,,2013-03-26 08:52:00,
2013-03-26 05:02:00,26.0,23.0,-100.00,ENE,74,4.0,8.0,89,0.00,,,0.21,0.000000,,2013-03-26 09:02:00,
2013-03-26 05:11:00,26.0,23.0,-100.00,East,80,4.0,11.0,89,0.00,,,0.21,0.000000,,2013-03-26 09:11:00,
2013-03-26 05:33:00,26.0,23.0,-100.00,East,80,4.0,11.0,89,0.00,,,0.21,0.000000,,2013-03-26 09:33:00,
2013-03-26 05:43:00,26.0,23.0,-100.00,East,80,4.0,11.0,89,0.00,,,0.21,0.000000,,2013-03-26 09:43:00,
2013-03-26 05:52:00,26.0,23.0,-100.00,East,80,4.0,11.0,89,0.00,,,0.21,0.000000,,2013-03-26 09:52:00,
2013-03-26 06:03:00,26.0,23.0,-100.00,East,80,4.0,11.0,89,0.00,,,0.21,0.000000,,2013-03-26 10:03:00,
2013-03-26 06:11:00,26.0,23.0,-100.00,East,83,4.0,9.0,89,0.00,,,0.21,0.000000,,2013-03-26 10:11:00,
2013-03-26 06:33:00,26.0,23.0,-100.00,East,83,4.0,9.0,89,0.00,,,0.21,0.000000,,2013-03-26 10:33:00,
2013-03-26 06:43:00,26.0,23.0,-100.00,East,83,4.0,9.0,89,0.00,,,0.21,0.000000,,2013-03-26 10:43:00,
2013-03-26 06:53:00,26.0,23.0,-100.00,East,83,4.0,9.0,89,0.00,,,0.21,0.000000,,2013-03-26 10:53:00,
2013-03-26 07:03:00,26.0,23.0,-100.00,East,83,4.0,9.0,89,0.00,,,0.21,0.000000,,2013-03-26 11:03:00,
2013-03-26 07:11:00,26.0,23.0,-100.00,East,84,4.0,10.0,89,0.00,,,0.21,0.000000,,2013-03-26 11:11:00,
2013-03-26 07:33:00,26.0,23.0,-100.00,East,84,4.0,10.0,89,0.00,,,0.21,0.000000,,2013-03-26 11:33:00,
2013-03-26 07:43:00,26.0,23.0,-100.00,East,84,4.0,10.0,89,0.00,,,0.21,0.000000,,2013-03-26 11:43:00,
2013-03-26 07:52:00,26.0,23.0,-100.00,East,84,4.0,10.0,89,0.00,,,0.21,0.000000,,2013-03-26 11:52:00,
2013-03-26 08:03:00,26.0,23.0,-100.00,East,84,4.0,10.0,89,0.00,,,0.21,0.000000,,2013-03-26 12:03:00,
2013-03-26 08:11:00,27.0,24.0,-100.00,East,97,4.0,12.0,88,0.00,,,0.21,5.000000,,2013-03-26 12:11:00,
2013-03-26 08:32:00,27.0,24.0,-100.00,East,97,4.0,12.0,88,0.00,,,0.21,5.000000,,2013-03-26 12:32:00,
2013-03-26 08:43:00,27.0,24.0,-100.00,East,97,4.0,12.0,88,0.00,,,0.21,5.000000,,2013-03-26 12:43:00,
2013-03-26 08:52:00,27.0,24.0,-100.00,East,97,4.0,12.0,88,0.00,,,0.21,5.000000,,2013-03-26 12:52:00,
2013-03-26 09:03:00,27.0,24.0,-100.00,East,97,4.0,12.0,88,0.00,,,0.21,5.000000,,2013-03-26 13:03:00,
2013-03-26 09:11:00,28.0,25.0,-100.00,East,94,4.0,10.0,88,0.00,,,0.21,37.000000,,2013-03-26 13:11:00,
2013-03-26 09:32:00,28.0,25.0,-100.00,East,94,4.0,10.0,88,0.00,,,0.21,37.000000,,2013-03-26 13:32:00,
2013-03-26 09:42:00,28.0,25.0,-100.00,East,94,4.0,10.0,88,0.00,,,0.21,37.000000,,2013-03-26 13:42:00,
2013-03-26 09:52:00,28.0,25.0,-100.00,East,94,4.0,10.0,88,0.00,,,0.21,37.000000,,2013-03-26 13:52:00,
2013-03-26 10:02:00,28.0,25.0,-100.00,East,94,4.0,10.0,88,0.00,,,0.21,37.000000,,2013-03-26 14:02:00,
2013-03-26 10:11:00,28.0,24.0,-100.00,East,85,5.0,11.0,86,0.00,,,0.21,82.000000,,2013-03-26 14:11:00,
2013-03-26 10:33:00,28.0,24.0,-100.00,East,85,5.0,11.0,86,0.00,,,0.21,82.000000,,2013-03-26 14:33:00,
2013-03-26 10:42:00,28.0,24.0,-100.00,East,85,5.0,11.0,86,0.00,,,0.21,82.000000,,2013-03-26 14:42:00,
2013-03-26 10:53:00,28.0,24.0,-100.00,East,85,5.0,11.0,86,0.00,,,0.21,82.000000,,2013-03-26 14:53:00,
2013-03-26 11:02:00,28.0,24.0,-100.00,East,85,5.0,11.0,86,0.00,,,0.21,82.000000,,2013-03-26 15:02:00,
2013-03-26 11:11:00,29.0,24.0,-100.00,East,80,6.0,12.0,81,0.00,,,0.21,117.000000,,2013-03-26 15:11:00,
2013-03-26 11:43:00,29.0,24.0,-100.00,East,80,6.0,12.0,81,0.00,,,0.21,117.000000,,2013-03-26 15:43:00,
2013-03-26 11:53:00,29.0,24.0,-100.00,East,80,6.0,12.0,81,0.00,,,0.21,117.000000,,2013-03-26 15:53:00,
2013-03-26 12:03:00,29.0,24.0,-100.00,East,80,6.0,12.0,81,0.00,,,0.21,117.000000,,2013-03-26 16:03:00,
2013-03-26 12:11:00,29.0,25.0,-100.00,East,89,4.0,10.0,84,0.00,,,0.21,118.000000,,2013-03-26 16:11:00,
2013-03-26 12:33:00,29.0,25.0,-100.00,East,89,4.0,10.0,84,0.00,,,0.21,118.000000,,2013-03-26 16:33:00,
2013-03-26 12:43:00,29.0,25.0,-100.00,East,89,4.0,10.0,84,0.00,,,0.21,118.000000,,2013-03-26 16:43:00,
2013-03-26 12:54:00,29.0,25.0,-100.00,East,89,4.0,10.0,84,0.00,,,0.21,118.000000,,2013-03-26 16:54:00,
2013-03-26 13:03:00,29.0,25.0,-100.00,East,89,4.0,10.0,84,0.00,,,0.21,118.000000,,2013-03-26 17:03:00,
2013-03-26 13:11:00,31.0,26.0,-100.00,East,101,4.0,11.0,80,0.00,,,0.09,201.000000,,2013-03-26 17:11:00,
2013-03-26 13:42:00,31.0,26.0,-100.00,East,101,4.0,11.0,80,0.00,,,0.09,201.000000,,2013-03-26 17:42:00,
2013-03-26 13:53:00,31.0,26.0,-100.00,East,101,4.0,11.0,80,0.00,,,0.09,201.000000,,2013-03-26 17:53:00,
2013-03-26 14:03:00,31.0,26.0,-100.00,East,101,4.0,11.0,80,0.00,,,0.09,201.000000,,2013-03-26 18:03:00,
2013-03-26 15:11:00,35.0,29.0,-100.00,East,90,5.0,13.0,80,-99.99,,,0.08,293.000000,,2013-03-26 19:11:00,
2013-03-26 15:42:00,35.0,29.0,-100.00,East,90,5.0,13.0,80,-99.99,,,0.08,293.000000,,2013-03-26 19:42:00,
2013-03-26 15:53:00,35.0,29.0,-100.00,East,90,5.0,13.0,80,-99.99,,,0.08,293.000000,,2013-03-26 19:53:00,
2013-03-26 16:02:00,35.0,29.0,-100.00,East,90,5.0,13.0,80,-99.99,,,0.08,293.000000,,2013-03-26 20:02:00,
2013-03-26 16:11:00,31.0,24.0,-100.00,ENE,75,5.0,13.0,75,0.04,,,0.12,252.000000,,2013-03-26 20:11:00,
2013-03-26 16:32:00,31.0,24.0,-100.00,ENE,75,5.0,13.0,75,0.04,,,0.12,252.000000,,2013-03-26 20:32:00,
2013-03-26 16:43:00,31.0,24.0,-100.00,ENE,75,5.0,13.0,75,0.04,,,0.12,252.000000,,2013-03-26 20:43:00,
2013-03-26 16:53:00,31.0,24.0,-100.00,ENE,75,5.0,13.0,75,0.04,,,0.12,252.000000,,2013-03-26 20:53:00,
2013-03-26 17:02:00,31.0,24.0,-100.00,ENE,75,5.0,13.0,75,0.04,,,0.12,252.000000,,2013-03-26 21:02:00,
2013-03-26 17:11:00,32.0,25.0,-100.00,East,91,4.0,12.0,76,0.02,,,0.12,224.000000,,2013-03-26 21:11:00,
2013-03-26 17:43:00,32.0,25.0,-100.00,East,91,4.0,12.0,76,0.02,,,0.12,224.000000,,2013-03-26 21:43:00,
2013-03-26 17:52:00,32.0,25.0,-100.00,East,91,4.0,12.0,76,0.02,,,0.12,224.000000,,2013-03-26 21:52:00,
2013-03-26 18:02:00,32.0,25.0,-100.00,East,91,4.0,12.0,76,0.02,,,0.12,224.000000,,2013-03-26 22:02:00,
2013-03-26 18:43:00,32.0,23.0,-100.00,East,79,6.0,12.0,69,0.00,,,0.12,186.000000,,2013-03-26 22:43:00,
2013-03-26 18:53:00,32.0,23.0,-100.00,East,79,6.0,12.0,69,0.00,,,0.12,186.000000,,2013-03-26 22:53:00,
2013-03-26 19:01:00,32.0,23.0,-100.00,East,79,6.0,12.0,69,0.00,,,0.12,186.000000,,2013-03-26 23:01:00,
2013-03-26 19:10:00,32.0,23.0,-100.00,East,79,6.0,12.0,69,0.00,,,0.12,186.000000,,2013-03-26 23:10:00,
2013-03-26 19:11:00,29.0,21.0,-100.00,ENE,70,4.0,12.0,71,0.00,,,0.12,60.000000,,2013-03-26 23:11:00,
2013-03-26 19:32:00,29.0,21.0,-100.00,ENE,70,4.0,12.0,71,0.00,,,0.12,60.000000,,2013-03-26 23:32:00,
2013-03-26 19:43:00,29.0,21.0,-100.00,ENE,70,4.0,12.0,71,0.00,,,0.12,60.000000,,2013-03-26 23:43:00,
2013-03-26 20:02:00,29.0,21.0,-100.00,ENE,70,4.0,12.0,71,0.00,,,0.12,60.000000,,2013-03-27 00:02:00,
2013-03-26 21:11:00,28.0,25.0,-100.00,ENE,70,3.0,6.0,89,-99.99,,,0.12,0.000000,,2013-03-27 01:11:00,
2013-03-26 21:33:00,28.0,25.0,-100.00,ENE,70,3.0,6.0,89,-99.99,,,0.12,0.000000,,2013-03-27 01:33:00,
2013-03-26 21:43:00,28.0,25.0,-100.00,ENE,70,3.0,6.0,89,-99.99,,,0.12,0.000000,,2013-03-27 01:43:00,
2013-03-26 21:53:00,28.0,25.0,-100.00,ENE,70,3.0,6.0,89,-99.99,,,0.12,0.000000,,2013-03-27 01:53:00,
2013-03-26 22:03:00,28.0,25.0,-100.00,ENE,70,3.0,6.0,89,-99.99,,,0.12,0.000000,,2013-03-27 02:03:00,
2013-03-26 22:11:00,29.0,26.0,-100.00,East,81,4.0,9.0,87,0.00,,,0.12,0.000000,,2013-03-27 02:11:00,
2013-03-26 22:43:00,29.0,26.0,-100.00,East,81,4.0,9.0,87,0.00,,,0.12,0.000000,,2013-03-27 02:43:00,
2013-03-26 22:53:00,29.0,26.0,-100.00,East,81,4.0,9.0,87,0.00,,,0.12,0.000000,,2013-03-27 02:53:00,
2013-03-26 23:02:00,29.0,26.0,-100.00,East,81,4.0,9.0,87,0.00,,,0.12,0.000000,,2013-03-27 03:02:00,
2013-03-26 23:11:00,28.0,24.0,-100.00,East,93,4.0,11.0,85,0.00,,,0.12,0.000000,,2013-03-27 03:11:00,
2013-03-26 23:43:00,28.0,24.0,-100.00,East,93,4.0,11.0,85,0.00,,,0.12,0.000000,,2013-03-27 03:43:00,
2013-03-26 23:53:00,28.0,24.0,-100.00,East,93,4.0,11.0,85,0.00,,,0.12,0.000000,,2013-03-27 03:53:00,